TimeAEST,TemperatureF,Dew PointF,Humidity,Sea Level PressureIn,VisibilityMPH,Wind Direction,Wind SpeedMPH,Gust SpeedMPH,PrecipitationIn,Events,Conditions,WindDirDegrees,DateUTC
12:00 AM,76,63,55,30.00,,East,20.7,,,,,100,2012-11-25 14:00:00
12:00 AM,77.0,62.6,61,30.01,-9999.0,East,20.7,-,N/A,,Unknown,100,2012-11-25 14:00:00
12:30 AM,77.0,64.4,65,29.98,-9999.0,East,20.7,-,N/A,,Unknown,100,2012-11-25 14:30:00
1:00 AM,77.0,62.6,61,29.98,-9999.0,East,19.6,-,N/A,,Unknown,100,2012-11-25 15:00:00
1:30 AM,77.0,60.8,57,29.95,-9999.0,East,20.7,-,N/A,,Unknown,100,2012-11-25 15:30:00
2:00 AM,77.0,62.6,61,29.95,-9999.0,East,17.3,-,N/A,,Unknown,100,2012-11-25 16:00:00
2:30 AM,75.2,60.8,61,29.95,-9999.0,East,17.3,-,N/A,,Unknown,100,2012-11-25 16:30:00
3:00 AM,76,61,51,29.94,,ESE,18.4,,,,,110,2012-11-25 17:00:00
3:00 AM,75.2,60.8,61,29.95,-9999.0,ESE,18.4,-,N/A,,Unknown,110,2012-11-25 17:00:00
3:30 AM,75.2,59.0,57,29.95,-9999.0,ESE,17.3,-,N/A,,Unknown,110,2012-11-25 17:30:00
4:00 AM,75.2,62.6,65,29.95,-9999.0,East,20.7,-,N/A,,Unknown,100,2012-11-25 18:00:00
4:30 AM,75.2,60.8,61,29.95,-9999.0,ESE,18.4,-,N/A,,Unknown,110,2012-11-25 18:30:00
5:00 AM,75.2,60.8,61,29.95,-9999.0,East,18.4,-,N/A,,Unknown,100,2012-11-25 19:00:00
5:30 AM,75.2,62.6,65,29.95,-9999.0,ESE,17.3,-,N/A,,Unknown,110,2012-11-25 19:30:00
6:00 AM,77,63,53,29.97,,ESE,18.4,,,,,110,2012-11-25 20:00:00
6:00 AM,77.0,62.6,61,29.98,-9999.0,ESE,18.4,-,N/A,,Unknown,110,2012-11-25 20:00:00
6:30 AM,77.0,62.6,61,29.98,-9999.0,ESE,17.3,-,N/A,,Unknown,110,2012-11-25 20:30:00
7:00 AM,78.8,62.6,57,29.98,-9999.0,ESE,18.4,-,N/A,,Unknown,110,2012-11-25 21:00:00
7:30 AM,78.8,59.0,51,30.01,-9999.0,ESE,17.3,-,N/A,,Unknown,110,2012-11-25 21:30:00
8:00 AM,80.6,60.8,51,30.01,-9999.0,ESE,17.3,-,N/A,,Unknown,110,2012-11-25 22:00:00
8:30 AM,80.6,60.8,51,30.01,-9999.0,ESE,16.1,-,N/A,,Unknown,110,2012-11-25 22:30:00
9:00 AM,80,60,40,30.01,,ESE,13.8,,,,,110,2012-11-25 23:00:00
9:00 AM,80.6,60.8,51,30.01,-9999.0,ESE,13.8,-,N/A,,Unknown,110,2012-11-25 23:00:00
9:30 AM,80.6,60.8,51,30.01,-9999.0,East,16.1,-,N/A,,Unknown,100,2012-11-25 23:30:00
10:00 AM,80.6,60.8,51,30.01,-9999.0,East,18.4,-,N/A,,Unknown,100,2012-11-26 00:00:00
10:30 AM,80.6,60.8,51,30.01,-9999.0,East,17.3,-,N/A,,Unknown,100,2012-11-26 00:30:00
11:00 AM,80.6,60.8,51,30.01,-9999.0,East,17.3,-,N/A,,Unknown,100,2012-11-26 01:00:00
11:30 AM,80.6,60.8,51,29.98,-9999.0,East,17.3,-,N/A,,Unknown,100,2012-11-26 01:30:00
12:00 PM,80,61,41,29.98,,East,18.4,,,,,100,2012-11-26 02:00:00
12:00 PM,80.6,60.8,51,29.98,-9999.0,East,18.4,-,N/A,,Unknown,100,2012-11-26 02:00:00
12:30 PM,80.6,60.8,51,29.98,-9999.0,East,18.4,-,N/A,,Unknown,100,2012-11-26 02:30:00
1:00 PM,82.4,60.8,48,29.95,-9999.0,ESE,17.3,-,N/A,,Unknown,120,2012-11-26 03:00:00
1:30 PM,80.6,60.8,51,29.95,-9999.0,East,15.0,-,N/A,,Unknown,100,2012-11-26 03:30:00
2:00 PM,80.6,60.8,51,29.95,-9999.0,ESE,15.0,-,N/A,,Unknown,110,2012-11-26 04:00:00
2:30 PM,80.6,62.6,54,29.92,-9999.0,ESE,17.3,-,N/A,,Unknown,120,2012-11-26 04:30:00
3:00 PM,80,63,46,29.92,,ESE,17.3,,,,,110,2012-11-26 05:00:00
3:00 PM,80.6,62.6,54,29.92,-9999.0,ESE,17.3,-,N/A,,Unknown,110,2012-11-26 05:00:00
3:30 PM,80.6,62.6,54,29.92,-9999.0,ESE,17.3,-,N/A,,Unknown,120,2012-11-26 05:30:00
4:00 PM,80.6,62.6,54,29.92,-9999.0,ESE,16.1,-,N/A,,Unknown,120,2012-11-26 06:00:00
4:30 PM,78.8,62.6,57,29.92,-9999.0,ESE,18.4,-,N/A,,Unknown,120,2012-11-26 06:30:00
5:00 PM,77.0,62.6,61,29.92,-9999.0,ESE,19.6,-,N/A,,Unknown,120,2012-11-26 07:00:00
5:30 PM,77.0,62.6,61,29.92,-9999.0,ESE,18.4,-,N/A,,Unknown,120,2012-11-26 07:30:00
6:00 PM,77,64,56,29.92,,ESE,19.6,,,,,120,2012-11-26 08:00:00
6:00 PM,77.0,64.4,65,29.92,-9999.0,ESE,19.6,-,N/A,,Unknown,120,2012-11-26 08:00:00
6:30 PM,77.0,62.6,61,29.95,-9999.0,ESE,18.4,-,N/A,,Unknown,110,2012-11-26 08:30:00
7:00 PM,77.0,64.4,65,29.95,-9999.0,ESE,19.6,-,N/A,,Unknown,120,2012-11-26 09:00:00
7:30 PM,77.0,62.6,61,29.95,-9999.0,ESE,18.4,-,N/A,,Unknown,120,2012-11-26 09:30:00
8:00 PM,77.0,64.4,65,29.95,-9999.0,ESE,19.6,-,N/A,,Unknown,120,2012-11-26 10:00:00
8:30 PM,77.0,64.4,65,29.98,-9999.0,ESE,19.6,-,N/A,,Unknown,120,2012-11-26 10:30:00
9:00 PM,77,65,57,29.97,,ESE,20.7,,,,,120,2012-11-26 11:00:00
9:00 PM,77.0,64.4,65,29.98,-9999.0,ESE,20.7,-,N/A,,Unknown,120,2012-11-26 11:00:00
9:30 PM,77.0,64.4,65,29.98,-9999.0,ESE,18.4,-,N/A,,Unknown,120,2012-11-26 11:30:00
10:00 PM,75.2,62.6,65,29.98,-9999.0,SE,17.3,-,N/A,,Unknown,130,2012-11-26 12:00:00
10:30 PM,77.0,64.4,65,29.98,-9999.0,SE,20.7,-,N/A,,Unknown,130,2012-11-26 12:30:00
11:00 PM,77.0,64.4,65,29.98,-9999.0,ESE,18.4,-,N/A,,Unknown,110,2012-11-26 13:00:00
11:30 PM,77.0,60.8,57,29.98,-9999.0,ESE,18.4,-,N/A,,Unknown,110,2012-11-26 13:30:00